TimeEDT,TemperatureF,Dew PointF,Humidity,Sea Level PressureIn,VisibilityMPH,Wind Direction,Wind SpeedMPH,Gust SpeedMPH,PrecipitationIn,Events,Conditions,WindDirDegrees,DateUTC
12:15 AM,58.1,54.9,89,30.23,10.0,Calm,Calm,-,N/A,,Clear,0,2013-08-16 04:15:00
12:35 AM,57.7,54.5,89,30.23,10.0,Calm,Calm,-,N/A,,Clear,0,2013-08-16 04:35:00
12:55 AM,57.6,54.7,90,30.23,10.0,Calm,Calm,-,N/A,,Clear,0,2013-08-16 04:55:00
1:15 AM,57.4,54.5,90,30.22,10.0,Calm,Calm,-,N/A,,Clear,0,2013-08-16 05:15:00
1:35 AM,57.2,54.5,91,30.22,10.0,Calm,Calm,-,N/A,,Clear,0,2013-08-16 05:35:00
1:55 AM,57.2,54.5,91,30.21,10.0,Calm,Calm,-,N/A,,Clear,0,2013-08-16 05:55:00
2:15 AM,56.3,53.6,91,30.21,10.0,Calm,Calm,-,N/A,,Clear,0,2013-08-16 06:15:00
2:35 AM,55.0,52.5,91,30.21,7.0,Calm,Calm,-,N/A,,Clear,0,2013-08-16 06:35:00
2:55 AM,55.4,52.7,91,30.20,10.0,Calm,Calm,-,N/A,,Clear,0,2013-08-16 06:55:00
3:15 AM,54.7,52.2,91,30.20,7.0,Calm,Calm,-,N/A,,Clear,0,2013-08-16 07:15:00
3:35 AM,54.9,52.3,91,30.20,7.0,Calm,Calm,-,N/A,,Clear,0,2013-08-16 07:35:00
3:55 AM,54.7,52.3,92,30.19,7.0,Calm,Calm,-,N/A,,Clear,0,2013-08-16 07:55:00
4:15 AM,54.9,52.3,91,30.19,10.0,Calm,Calm,-,N/A,,Clear,0,2013-08-16 08:15:00
4:35 AM,54.7,52.2,91,30.19,10.0,Calm,Calm,-,N/A,,Clear,0,2013-08-16 08:35:00
4:55 AM,54.7,52.2,91,30.20,10.0,Calm,Calm,-,N/A,,Clear,0,2013-08-16 08:55:00
5:15 AM,54.3,51.8,91,30.20,10.0,Calm,Calm,-,N/A,,Clear,0,2013-08-16 09:15:00
5:35 AM,53.6,50.9,91,30.20,7.0,Calm,Calm,-,N/A,,Clear,0,2013-08-16 09:35:00
5:55 AM,53.6,51.3,92,30.20,10.0,Calm,Calm,-,N/A,,Clear,0,2013-08-16 09:55:00
6:15 AM,54.0,51.4,91,30.20,10.0,Calm,Calm,-,N/A,,Scattered Clouds,0,2013-08-16 10:15:00
6:35 AM,54.0,51.4,91,30.21,10.0,Calm,Calm,-,N/A,,Clear,0,2013-08-16 10:35:00
6:55 AM,53.6,51.1,91,30.22,7.0,Calm,Calm,-,N/A,,Clear,0,2013-08-16 10:55:00
7:15 AM,54.1,51.8,92,30.23,7.0,Calm,Calm,-,N/A,,Clear,0,2013-08-16 11:15:00
7:35 AM,55.6,53.1,91,30.23,7.0,Calm,Calm,-,N/A,,Clear,0,2013-08-16 11:35:00
7:55 AM,56.8,54.1,91,30.23,10.0,Calm,Calm,-,N/A,,Clear,0,2013-08-16 11:55:00
8:15 AM,58.3,55.2,90,30.23,10.0,Calm,Calm,-,N/A,,Clear,0,2013-08-16 12:15:00
8:35 AM,60.1,56.3,87,30.24,10.0,Calm,Calm,-,N/A,,Clear,0,2013-08-16 12:35:00
8:55 AM,60.1,56.5,88,30.24,10.0,Calm,Calm,-,N/A,,Clear,0,2013-08-16 12:55:00
9:15 AM,60.8,57.2,88,30.24,10.0,Calm,Calm,-,N/A,,Clear,0,2013-08-16 13:15:00
9:35 AM,62.2,58.5,87,30.23,10.0,Calm,Calm,-,N/A,,Clear,0,2013-08-16 13:35:00
9:55 AM,63.5,59.2,86,30.24,10.0,Calm,Calm,-,N/A,,Clear,0,2013-08-16 13:55:00
10:15 AM,65.8,59.9,81,30.24,10.0,SSE,4.6,-,N/A,,Clear,150,2013-08-16 14:15:00
10:35 AM,68.5,60.3,75,30.24,10.0,East,4.6,-,N/A,,Clear,80,2013-08-16 14:35:00
10:55 AM,68.5,59.7,73,30.25,10.0,East,5.8,-,N/A,,Clear,100,2013-08-16 14:55:00
11:15 AM,67.8,59.2,74,30.26,10.0,SE,3.5,-,N/A,,Clear,130,2013-08-16 15:15:00
11:35 AM,67.6,59.4,75,30.25,10.0,SE,4.6,-,N/A,,Clear,140,2013-08-16 15:35:00
11:55 AM,67.8,59.4,74,30.25,10.0,SE,4.6,-,N/A,,Clear,130,2013-08-16 15:55:00
12:15 PM,69.8,60.4,72,30.24,10.0,ENE,3.5,-,N/A,,Clear,60,2013-08-16 16:15:00
12:35 PM,69.1,59.5,72,30.24,10.0,East,3.5,-,N/A,,Clear,90,2013-08-16 16:35:00
12:55 PM,70.3,60.3,70,30.23,10.0,ESE,4.6,-,N/A,,Clear,110,2013-08-16 16:55:00
1:15 PM,70.7,58.1,64,30.24,10.0,ESE,4.6,-,N/A,,Mostly Cloudy,120,2013-08-16 17:15:00
1:35 PM,71.1,59.0,66,30.24,10.0,SSE,4.6,-,N/A,,Mostly Cloudy,160,2013-08-16 17:35:00
1:55 PM,71.6,57.9,62,30.24,10.0,South,3.5,-,N/A,,Scattered Clouds,170,2013-08-16 17:55:00
2:15 PM,73.8,59.9,62,30.23,10.0,East,4.6,-,N/A,,Scattered Clouds,100,2013-08-16 18:15:00
2:35 PM,72.1,59.4,64,30.22,10.0,Calm,Calm,-,N/A,,Scattered Clouds,0,2013-08-16 18:35:00
2:55 PM,72.5,58.8,62,30.21,10.0,East,3.5,-,N/A,,Scattered Clouds,90,2013-08-16 18:55:00
3:15 PM,73.2,58.1,59,30.21,10.0,East,3.5,-,N/A,,Clear,100,2013-08-16 19:15:00
3:35 PM,72.7,57.2,58,30.21,10.0,ESE,6.9,-,N/A,,Clear,110,2013-08-16 19:35:00
3:55 PM,73.0,59.2,62,30.20,10.0,East,5.8,-,N/A,,Clear,80,2013-08-16 19:55:00
4:15 PM,73.4,58.3,59,30.20,10.0,ESE,6.9,-,N/A,,Clear,110,2013-08-16 20:15:00
4:35 PM,73.4,59.2,61,30.20,10.0,East,5.8,-,N/A,,Scattered Clouds,100,2013-08-16 20:35:00
4:55 PM,73.2,59.5,62,30.21,10.0,ESE,5.8,-,N/A,,Scattered Clouds,110,2013-08-16 20:55:00
5:15 PM,72.7,59.5,63,30.20,10.0,ENE,6.9,-,N/A,,Scattered Clouds,70,2013-08-16 21:15:00
5:35 PM,73.4,60.4,64,30.20,10.0,East,6.9,-,N/A,,Scattered Clouds,90,2013-08-16 21:35:00
5:55 PM,72.5,60.1,65,30.21,10.0,ESE,4.6,-,N/A,,Scattered Clouds,110,2013-08-16 21:55:00
6:15 PM,72.5,60.4,66,30.21,10.0,ESE,4.6,-,N/A,,Scattered Clouds,120,2013-08-16 22:15:00
6:35 PM,72.3,61.0,67,30.21,10.0,ENE,6.9,-,N/A,,Clear,70,2013-08-16 22:35:00
6:55 PM,71.1,60.6,69,30.21,10.0,East,6.9,-,N/A,,Clear,100,2013-08-16 22:55:00
7:15 PM,70.2,60.4,71,30.21,10.0,ESE,5.8,-,N/A,,Clear,120,2013-08-16 23:15:00
7:35 PM,69.1,60.4,74,30.21,10.0,ESE,5.8,-,N/A,,Clear,110,2013-08-16 23:35:00
7:55 PM,68.0,60.1,76,30.22,10.0,Calm,Calm,-,N/A,,Clear,0,2013-08-16 23:55:00
8:15 PM,66.9,59.9,78,30.23,10.0,East,3.5,-,N/A,,Clear,100,2013-08-17 00:15:00
8:35 PM,66.0,59.9,81,30.23,10.0,East,3.5,-,N/A,,Clear,80,2013-08-17 00:35:00
8:55 PM,65.3,59.9,83,30.24,10.0,Calm,Calm,-,N/A,,Clear,0,2013-08-17 00:55:00
9:15 PM,65.5,59.5,81,30.25,10.0,Calm,Calm,-,N/A,,Clear,0,2013-08-17 01:15:00
9:35 PM,64.9,59.0,81,30.26,10.0,Calm,Calm,-,N/A,,Clear,0,2013-08-17 01:35:00
9:55 PM,63.9,58.8,84,30.27,10.0,Calm,Calm,-,N/A,,Clear,0,2013-08-17 01:55:00
10:15 PM,63.7,59.0,85,30.27,10.0,Calm,Calm,-,N/A,,Clear,0,2013-08-17 02:15:00
10:35 PM,63.0,58.3,85,30.26,10.0,Calm,Calm,-,N/A,,Clear,0,2013-08-17 02:35:00
10:55 PM,62.4,58.1,86,30.26,10.0,North,3.5,-,N/A,,Clear,360,2013-08-17 02:55:00
11:15 PM,62.2,58.1,86,30.27,10.0,Calm,Calm,-,N/A,,Clear,0,2013-08-17 03:15:00
11:35 PM,61.7,57.7,87,30.27,10.0,Calm,Calm,-,N/A,,Clear,0,2013-08-17 03:35:00
11:55 PM,61.5,57.4,86,30.27,10.0,Calm,Calm,-,N/A,,Clear,0,2013-08-17 03:55:00